Location: Newark
(51.3318°N, 0.0053°E)
Time: 07:11:40
(UTC+00:00)

LO-87 - Pass Details

Date: 05 July 2022
Orbit: 450 x 466 km, 97.4° (Epoch: 15 August)

Event Time Altitude Azimuth Distance (km) Brightness Sun altitude
Exits shadow 22:50:26 21° 124° (ESE) 1,114 ? -14.2°
Maximum altitude 22:52:17 36° 69° (ENE) 754 ? -14.3°
Drops below altitude 10° 22:55:32 10° 2° (N) 1,636 ? -14.4°
Sets 22:57:41 0° 354° (N) 2,522 ? -14.5°
